Theta_e
311 311 311 311 311 311 311 312 313 312 312 312 313 313 313 314 309 305 300 305 306 309 306 299 298 297 297 295 297 296 288 286 286 287 289 291 288 292 293 291 292 294 294 297 299
311 311 311 312 311 311 311 312 312 312 312 312 313 313 313 313 302 297 307 309 309 307 298 295 293 294 292 291 293 292 287 284 289 290 288 289 288 289 289 290 291 293 296 298 298
311 310 311 312 312 312 312 312 312 312 312 313 313 313 313 310 294 296 308 308 307 304 299 297 295 292 289 291 289 288 286 287 287 289 289 288 288 291 289 288 292 291 294 296 297
310 310 310 311 311 312 312 312 312 312 312 312 312 312 308 303 284 299 306 306 305 302 299 297 294 289 288 286 289 285 286 287 288 288 288 288 291 289 290 291 295 296 296 296 296
310 310 311 311 312 312 312 312 312 312 311 310 310 311 301 291 292 303 303 301 300 298 296 293 292 289 287 288 288 286 286 288 290 290 290 291 289 289 291 295 296 296 295 295 296
309 311 310 311 312 312 312 310 310 312 311 311 310 307 294 286 300 300 298 298 298 297 295 296 293 292 289 288 287 289 289 289 290 290 290 288 289 289 291 293 293 294 294 296 296
309 310 311 311 312 312 311 309 310 310 309 310 309 301 293 291 301 299 298 296 297 297 294 296 296 293 291 288 290 289 285 288 288 289 288 289 287 286 292 293 292 293 294 295 294
310 310 311 311 312 312 309 310 309 309 308 309 305 300 290 302 301 296 298 297 299 300 298 298 298 294 291 291 287 284 285 283 288 288 288 287 283 288 293 291 290 291 293 291 292
310 310 311 311 312 310 307 308 304 306 306 302 296 293 286 296 292 295 296 294 296 298 298 298 296 290 290 285 284 284 280 281 284 288 287 285 283 288 292 290 289 291 289 288 289
310 310 310 312 311 308 304 306 301 300 298 294 293 290 289 287 292 294 296 296 294 294 293 292 291 289 288 286 278 279 279 281 281 286 285 284 284 288 290 289 288 286 286 287 288
310 310 310 311 309 305 300 297 293 292 294 286 286 286 287 292 293 293 294 293 293 292 286 288 287 283 283 284 283 283 281 280 283 286 283 283 283 285 287 285 284 285 286 286 287
311 309 310 311 307 303 299 293 290 291 286 289 287 288 290 291 287 292 297 290 287 284 286 286 283 284 285 285 283 282 280 280 283 285 282 282 282 284 284 283 284 285 285 285 286
313 309 310 309 304 300 295 293 297 295 287 284 286 286 287 290 286 288 293 289 284 284 281 282 283 285 284 283 282 283 280 281 279 282 283 281 281 282 284 284 285 286 286 286 285
312 309 308 307 300 298 293 297 296 294 287 284 283 285 289 288 285 292 293 290 286 282 281 283 285 283 283 281 282 278 284 282 279 277 277 281 275 280 281 282 283 284 284 284 284
312 309 305 303 297 294 294 296 295 293 284 282 282 290 289 287 286 288 292 289 284 283 282 283 282 282 280 282 283 281 284 281 277 275 276 276 275 280 279 279 280 282 283 283 284
310 308 305 301 296 294 297 294 293 288 282 280 281 281 285 285 285 287 288 290 288 283 282 283 284 283 283 284 284 284 281 276 275 277 274 273 274 277 278 276 279 281 281 282 282
310 305 299 297 293 295 295 292 288 285 278 281 279 280 279 280 282 283 284 283 281 280 278 279 280 282 283 282 284 282 279 276 274 274 273 273 273 278 278 280 280 279 280 281 282
304 299 295 293 295 295 291 288 285 280 279 278 279 279 278 279 279 280 281 281 282 279 276 275 277 281 282 281 279 278 277 274 267 270 272 276 272 277 280 283 282 281 280 281 281
302 296 294 294 295 294 290 286 287 284 280 278 278 277 278 278 278 278 278 281 282 280 277 276 277 280 281 283 282 278 276 277 272 269 268 274 275 279 281 281 280 279 279 278 279
296 294 291 295 295 293 286 289 286 281 281 280 280 277 277 277 278 278 277 282 281 282 280 276 274 278 280 283 281 281 279 274 274 268 267 272 270 273 276 277 278 277 277 277 279
297 290 292 296 295 288 286 287 281 281 282 280 278 276 277 278 276 276 277 280 283 281 282 279 274 278 278 279 279 279 277 275 275 273 269 268 273 278 277 278 277 277 277 277 278
296 286 293 294 286 282 284 279 281 280 282 281 281 279 279 278 277 275 277 278 283 283 278 280 276 272 277 280 282 280 279 277 273 270 274 272 273 282 280 280 280 277 278 278 278
287 285 293 293 285 284 279 279 280 280 280 280 279 280 280 277 276 278 278 282 283 282 280 280 275 272 276 277 279 278 280 279 276 275 272 270 273 284 282 280 281 278 278 278 278
289 284 286 288 286 285 281 282 281 282 281 281 280 281 279 276 278 276 278 281 283 283 283 283 276 273 273 275 275 274 277 278 276 272 273 273 275 278 279 278 279 278 278 278 278
292 286 288 282 283 285 285 283 279 279 281 282 279 280 279 275 275 274 279 280 282 284 281 280 272 273 274 275 274 273 273 274 272 274 272 273 272 276 279 279 279 279 278 277 277
288 287 286 284 284 284 284 281 279 280 279 278 277 280 281 277 280 277 279 279 278 279 279 277 273 269 268 273 275 273 276 276 273 274 271 273 271 279 282 282 280 279 277 276 276
291 291 293 286 283 283 283 284 282 283 283 282 281 280 278 281 283 282 282 282 281 278 277 275 272 269 271 269 270 271 274 276 277 276 275 271 278 278 277 279 279 278 276 276 276
Wind_Speed
9 9 10 11 10 9 9 10 12 11 11 10 10 9 8 5 7 14 18 11 12 18 15 10 7 5 4 5 5 1 4 4 2 3 1 2 7 3 4 12 13 9 13 15 20
9 10 10 10 10 11 11 11 10 9 9 8 8 8 8 2 4 17 13 16 14 15 9 12 10 6 5 4 4 2 3 1 0 2 6 9 8 10 7 12 16 16 15 12 12
9 9 10 11 11 10 10 10 10 10 9 9 8 8 6 3 2 8 18 15 14 11 5 6 4 3 5 3 4 2 3 1 2 4 5 7 13 6 8 15 10 15 18 17 18
9 10 10 11 11 11 10 10 10 10 10 9 8 7 3 2 3 4 15 13 10 9 11 9 6 3 3 2 3 4 2 3 2 2 5 11 12 12 17 20 16 16 16 17 17
9 9 10 11 12 12 11 11 10 9 9 8 7 5 1 6 6 6 13 10 6 5 10 5 11 2 3 1 2 2 2 5 8 13 17 15 20 15 18 17 15 12 12 12 15
7 9 9 11 12 12 13 12 8 7 6 7 8 2 1 6 3 6 8 4 7 6 8 8 6 3 4 2 4 6 10 15 9 10 10 10 14 4 4 4 8 10 9 14 19
7 8 10 12 13 13 14 10 6 3 4 7 8 3 11 6 3 7 8 2 4 5 4 5 4 3 3 2 3 5 8 8 9 6 6 8 13 8 6 11 12 9 17 19 15
8 9 11 13 13 13 13 6 4 2 3 5 5 1 5 1 2 5 9 1 5 4 3 4 3 4 2 2 2 4 6 8 2 7 2 7 12 4 12 15 22 20 15 13 16
6 8 11 14 15 15 12 2 5 2 3 5 0 1 4 1 3 5 3 5 2 3 6 5 2 3 1 3 2 3 8 13 10 4 9 3 21 13 21 18 18 13 9 12 15
4 8 10 12 15 16 9 1 4 1 4 1 2 3 3 5 4 6 3 4 3 1 2 3 3 2 4 9 6 13 9 12 14 13 11 18 23 21 18 13 9 6 9 14 17
4 7 9 11 13 14 4 1 1 2 8 5 1 2 1 7 2 3 4 2 2 5 3 4 2 5 5 3 4 9 12 16 19 9 18 12 23 18 10 8 5 10 14 18 21
3 5 8 9 7 13 3 5 3 3 2 1 1 2 1 3 3 6 8 3 5 4 4 1 2 0 4 5 6 9 12 11 13 10 14 12 20 3 4 4 4 11 17 22 24
4 4 5 7 2 5 6 3 3 0 1 2 3 3 3 4 2 6 7 2 4 2 5 1 3 3 3 5 7 10 6 15 20 25 6 11 6 7 4 4 7 15 21 24 23
5 3 6 6 1 0 3 1 2 2 2 3 3 3 1 2 1 2 4 3 1 3 1 3 1 3 5 3 6 6 10 19 18 8 5 7 7 4 3 6 9 21 26 25 24
8 4 5 3 5 2 3 2 2 1 3 1 1 2 2 3 6 2 2 1 2 2 2 2 2 4 3 5 6 9 21 14 4 2 6 3 5 1 2 7 19 24 26 23 23
10 7 3 2 2 2 2 1 2 1 4 1 3 4 3 4 3 6 2 2 1 2 2 4 1 3 3 10 2 15 9 0 2 2 4 5 6 5 5 9 25 26 24 23 22
11 10 5 2 1 2 1 2 3 3 1 0 1 4 2 4 3 6 5 5 5 4 5 5 2 1 2 6 3 9 7 6 4 3 5 4 8 7 2 13 22 28 26 24 22
16 10 7 3 3 4 0 4 3 1 5 1 1 0 1 4 1 5 0 0 2 2 3 4 3 1 2 2 4 5 5 3 8 8 12 6 5 5 3 16 21 21 21 22 21
16 3 3 3 5 2 1 2 4 4 2 2 1 1 2 2 2 2 1 2 1 1 3 2 5 1 1 3 3 2 3 2 6 2 5 4 4 5 7 16 20 23 22 21 21
5 3 2 5 3 1 2 4 3 2 3 1 3 1 2 2 2 1 1 3 4 1 1 3 6 1 2 2 2 2 3 2 2 7 9 4 5 9 20 23 22 24 21 20 20
4 3 1 4 1 3 3 4 3 2 2 3 2 3 4 3 3 3 1 3 3 4 1 4 0 1 3 4 3 3 1 1 3 4 5 8 4 3 15 19 19 20 20 18 18
3 2 2 3 2 1 3 2 1 3 2 3 1 5 6 6 4 4 4 4 4 6 4 5 2 6 4 2 1 1 3 3 2 1 6 5 7 2 12 15 12 16 17 17 15
3 2 1 2 2 3 1 3 2 3 3 3 4 5 2 4 3 5 5 2 7 6 5 7 2 6 3 3 4 6 6 6 3 3 8 4 6 7 13 15 14 16 16 15 15
4 3 1 1 1 2 4 4 3 1 1 3 2 3 3 4 4 2 5 4 7 4 5 6 4 6 7 5 2 6 7 9 4 4 4 10 13 7 12 16 17 17 16 16 15
1 2 3 4 6 6 5 4 4 4 5 6 3 11 8 5 4 6 6 4 4 6 3 4 5 5 12 16 11 13 14 13 12 8 7 3 6 13 4 10 12 12 15 16 17
5 5 1 3 5 8 6 6 9 5 8 6 8 6 13 6 7 7 8 6 5 5 7 4 2 1 7 4 6 14 16 14 12 9 11 14 14 5 4 6 9 13 15 15 16
1 1 2 7 6 4 7 7 10 10 10 3 10 5 10 16 6 1 3 4 4 7 9 5 3 1 6 4 8 8 8 12 7 6 6 7 3 3 3 4 4 10 11 14 14
Wind_Direction
16 14 6 5 11 3 355 351 2 2 357 359 358 358 355 1 44 58 42 2 350 346 334 340 14 33 54 68 34 303 232 245 260 231 3 338 332 311 301 280 293 248 280 290 306
16 6 4 6 3 358 356 360 0 5 2 358 352 348 341 336 45 50 358 351 352 352 353 7 8 19 60 44 24 328 254 304 15 266 279 297 299 312 296 285 270 283 269 282 298
8 7 1 357 356 354 355 355 352 354 356 352 348 343 346 176 127 15 350 352 359 354 354 11 9 42 72 25 22 3 283 44 245 255 273 292 286 256 268 275 277 287 307 313 312
4 355 352 354 352 351 351 347 347 349 350 351 347 350 38 205 51 8 349 350 6 3 28 18 25 60 77 96 358 269 282 264 291 241 283 283 288 258 249 256 287 295 301 301 305
1 359 355 353 349 347 346 344 343 344 350 358 5 8 184 65 48 345 344 353 8 7 29 37 44 43 100 2 272 255 335 296 279 286 280 266 251 259 271 276 279 290 298 307 314
357 354 352 348 346 344 342 335 327 338 355 12 18 17 64 77 345 336 342 347 17 17 33 33 44 47 89 43 354 340 302 283 294 263 253 257 276 272 271 338 299 289 298 318 323
346 345 345 344 344 342 340 340 343 2 1 11 17 57 68 75 350 345 2 0 356 18 39 38 28 33 352 23 4 304 293 258 231 295 292 315 269 216 281 326 315 305 305 326 329
343 345 344 341 338 339 342 354 27 32 13 5 24 62 80 36 328 5 346 21 22 39 51 40 58 77 25 2 214 274 248 332 10 311 316 341 287 277 313 316 310 311 322 331 332
342 340 342 340 339 338 338 333 17 45 31 7 125 351 82 341 2 338 330 346 352 67 49 66 48 41 293 346 210 24 312 322 326 272 320 274 295 294 306 308 309 322 341 346 338
324 339 341 340 338 341 336 285 46 83 22 94 94 158 63 338 308 324 340 342 19 53 139 54 41 67 34 23 11 320 318 310 312 319 321 292 284 305 313 315 322 15 351 341 331
308 338 338 344 350 353 359 157 259 131 43 47 40 80 9 320 245 7 1 291 356 67 33 37 76 38 15 18 299 291 290 294 304 323 319 301 300 319 350 89 50 2 346 338 330
266 329 333 332 2 12 43 64 77 332 111 304 88 42 36 340 307 25 360 13 34 39 350 187 74 39 303 289 290 295 296 307 307 311 321 309 303 48 121 117 31 350 343 336 326
241 288 311 330 6 36 67 69 342 1 279 68 53 39 351 336 4 348 5 50 65 49 27 313 84 297 281 320 332 310 261 311 309 321 277 302 268 211 198 242 317 343 338 330 327
227 293 336 319 171 3 50 43 303 241 66 355 38 51 334 317 134 348 6 338 105 16 329 258 330 306 303 292 346 299 329 316 310 319 319 14 302 261 235 298 338 340 336 327 331
191 149 48 50 132 81 48 331 100 286 291 86 349 348 338 18 323 73 332 269 333 332 223 39 301 332 290 346 337 275 317 322 313 215 299 143 268 299 337 355 339 336 335 329 328
168 154 128 58 50 87 85 101 208 277 254 66 306 343 11 26 30 314 333 49 9 222 214 278 330 250 306 312 287 309 313 143 131 264 258 119 355 286 14 346 337 336 330 329 328
145 99 70 26 44 27 297 190 358 220 90 293 323 18 76 342 15 8 19 20 6 330 5 325 198 243 285 307 202 353 331 342 323 292 303 141 307 307 149 349 345 331 328 330 331
125 96 57 55 347 0 266 45 224 56 239 136 187 95 312 1 60 340 139 156 71 6 75 343 295 79 15 8 315 20 11 15 307 320 312 309 243 346 306 338 338 331 330 330 333
110 77 72 7 353 57 329 135 226 205 124 194 117 126 188 184 277 325 333 208 111 161 347 287 268 278 230 337 308 67 359 343 263 191 264 282 267 246 329 333 341 341 339 336 335
111 95 39 329 350 50 94 226 211 149 139 177 239 221 233 211 265 216 186 148 162 164 226 169 287 141 294 176 64 348 62 243 178 307 312 305 279 307 335 341 341 341 336 333 333
77 101 337 347 263 55 212 235 237 201 168 221 222 199 233 237 215 207 160 161 185 140 151 166 309 175 235 201 189 160 197 177 270 262 302 312 4 265 343 337 331 333 332 333 333
126 125 0 331 97 336 200 213 299 182 171 214 263 223 216 172 196 242 232 240 173 158 191 192 157 272 264 98 14 284 245 224 257 263 243 273 281 236 4 335 325 333 333 335 333
97 98 317 281 192 207 350 229 260 179 210 175 243 222 192 194 233 216 207 161 169 188 190 164 195 297 233 146 149 237 207 219 214 267 242 281 302 30 358 343 343 341 340 340 339
130 137 52 27 48 178 174 212 206 332 243 209 251 143 167 216 211 278 235 177 186 216 193 182 202 235 258 295 4 245 232 220 229 257 283 251 288 334 355 338 342 344 342 345 349
112 198 185 173 219 194 188 156 170 207 227 214 237 218 188 200 198 224 215 172 180 200 144 200 242 241 257 267 254 258 259 248 215 223 246 315 258 300 304 319 331 335 343 350 352
142 156 148 141 139 158 181 212 208 166 170 225 232 203 204 207 205 194 176 206 190 175 184 181 249 280 279 264 227 270 257 244 231 237 253 271 283 229 239 304 346 343 349 353 353
184 51 131 159 149 170 202 210 209 156 213 254 218 204 207 236 220 80 110 65 164 170 184 174 183 234 267 348 307 267 234 199 213 194 185 219 219 160 253 287 333 335 348 341 348